Location: Nitra
(0.0000°N, 18.0833°E)
Time: 23:31:23
(UTC+02:00)

Hubble Space Telescope - Pass Details

Date: 08 February 2023
Orbit: 527 x 530 km, 28.5° (Epoch: 28 March)

Event Time Altitude Azimuth Distance (km) Brightness Sun altitude
Exits shadow 04:54:00 22° 332° (NNW) 1,190 2.1 -16.4°
Maximum altitude 04:56:11 40° 30° (NNE) 782 1.7 -15.8°
Drops below altitude 10° 05:00:02 10° 100° (E) 1,766 4.8 -14.9°
Sets 05:02:23 0° 108° (ESE) 2,658 6.3 -14.3°
